Time,TemperatureF,DewpointF,PressureIn,WindDirection,WindDirectionDegrees,WindSpeedMPH,WindSpeedGustMPH,Humidity,HourlyPrecipIn,Conditions,Clouds,dailyrainin,SolarRadiationWatts/m^2,SoftwareType,DateUTC
2013-03-15 00:00:00,41.0,39.0,-100.00,SSW,212,0.0,-999.0,93,-99.99,,,-99.99,0.000000,,2013-03-15 05:00:00,
2013-03-15 00:52:00,41.0,39.0,-100.00,SSW,212,0.0,-999.0,93,-99.99,,,-99.99,0.000000,,2013-03-15 05:52:00,
2013-03-15 03:00:00,39.0,38.0,-100.00,WSW,249,0.0,-999.0,96,-99.99,,,-99.99,0.000000,,2013-03-15 08:00:00,
2013-03-15 03:52:00,39.0,38.0,-100.00,WSW,249,0.0,-999.0,96,-99.99,,,-99.99,0.000000,,2013-03-15 08:52:00,
2013-03-15 04:00:00,38.0,37.0,-100.00,North,360,0.0,-999.0,96,-99.99,,,-99.99,0.000000,,2013-03-15 09:00:00,
2013-03-15 04:53:00,38.0,37.0,-100.00,North,360,0.0,-999.0,96,-99.99,,,-99.99,0.000000,,2013-03-15 09:53:00,
2013-03-15 05:00:00,38.0,37.0,-100.00,NNE,13,0.0,-999.0,96,-99.99,,,-99.99,0.000000,,2013-03-15 10:00:00,
2013-03-15 05:52:00,38.0,37.0,-100.00,NNE,13,0.0,-999.0,96,-99.99,,,-99.99,0.000000,,2013-03-15 10:52:00,
2013-03-15 06:00:00,38.0,37.0,-100.00,NNE,22,1.0,-999.0,96,-99.99,,,-99.99,0.000000,,2013-03-15 11:00:00,
2013-03-15 06:52:00,38.0,37.0,-100.00,NNE,22,1.0,-999.0,96,-99.99,,,-99.99,0.000000,,2013-03-15 11:52:00,
2013-03-15 07:00:00,37.0,36.0,-100.00,North,8,0.0,-999.0,97,-99.99,,,-99.99,0.220000,,2013-03-15 12:00:00,
2013-03-15 07:52:00,37.0,36.0,-100.00,North,8,0.0,-999.0,97,-99.99,,,-99.99,0.220000,,2013-03-15 12:52:00,
2013-03-15 08:00:00,41.0,41.0,-100.00,North,7,0.0,-999.0,97,-99.99,,,-99.99,44.430000,,2013-03-15 13:00:00,
2013-03-15 08:53:00,41.0,41.0,-100.00,North,7,0.0,-999.0,97,-99.99,,,-99.99,44.430000,,2013-03-15 13:53:00,
2013-03-15 09:00:00,56.0,51.0,-100.00,West,263,0.0,-999.0,83,-99.99,,,-99.99,249.089996,,2013-03-15 14:00:00,
2013-03-15 09:53:00,56.0,51.0,-100.00,West,263,0.0,-999.0,83,-99.99,,,-99.99,249.089996,,2013-03-15 14:53:00,
2013-03-15 10:00:00,62.0,45.0,-100.00,WSW,249,5.0,-999.0,54,-99.99,,,-99.99,437.859985,,2013-03-15 15:00:00,
2013-03-15 10:53:00,62.0,45.0,-100.00,WSW,249,5.0,-999.0,54,-99.99,,,-99.99,437.859985,,2013-03-15 15:53:00,
2013-03-15 11:00:00,66.0,43.0,-100.00,WSW,237,7.0,-999.0,44,-99.99,,,-99.99,602.299988,,2013-03-15 16:00:00,
2013-03-15 11:52:00,66.0,43.0,-100.00,WSW,237,7.0,-999.0,44,-99.99,,,-99.99,602.299988,,2013-03-15 16:52:00,
2013-03-15 12:00:00,68.0,39.0,-100.00,SW,229,9.0,-999.0,35,-99.99,,,-99.99,732.450012,,2013-03-15 17:00:00,
2013-03-15 12:53:00,68.0,39.0,-100.00,SW,229,9.0,-999.0,35,-99.99,,,-99.99,732.450012,,2013-03-15 17:53:00,
2013-03-15 13:00:00,68.0,40.0,-100.00,SW,227,11.0,-999.0,36,-99.99,,,-99.99,799.900024,,2013-03-15 18:00:00,
2013-03-15 13:52:00,68.0,40.0,-100.00,SW,227,11.0,-999.0,36,-99.99,,,-99.99,799.900024,,2013-03-15 18:52:00,
2013-03-15 14:00:00,70.0,42.0,-100.00,SW,226,10.0,-999.0,37,-99.99,,,-99.99,801.799988,,2013-03-15 19:00:00,
2013-03-15 14:52:00,70.0,42.0,-100.00,SW,226,10.0,-999.0,37,-99.99,,,-99.99,801.799988,,2013-03-15 19:52:00,
2013-03-15 15:00:00,67.0,43.0,-100.00,SW,222,10.0,-999.0,41,-99.99,,,-99.99,742.900024,,2013-03-15 20:00:00,
2013-03-15 15:52:00,67.0,43.0,-100.00,SW,222,10.0,-999.0,41,-99.99,,,-99.99,742.900024,,2013-03-15 20:52:00,
2013-03-15 16:00:00,68.0,38.0,-100.00,SSW,213,11.0,-999.0,34,-99.99,,,-99.99,628.140015,,2013-03-15 21:00:00,
2013-03-15 16:53:00,68.0,38.0,-100.00,SSW,213,11.0,-999.0,34,-99.99,,,-99.99,628.140015,,2013-03-15 21:53:00,
2013-03-15 17:00:00,67.0,40.0,-100.00,SSW,213,10.0,-999.0,37,-99.99,,,-99.99,465.119995,,2013-03-15 22:00:00,
2013-03-15 17:53:00,67.0,40.0,-100.00,SSW,213,10.0,-999.0,37,-99.99,,,-99.99,465.119995,,2013-03-15 22:53:00,
2013-03-15 18:00:00,65.0,44.0,-100.00,SSW,207,8.0,-999.0,46,-99.99,,,-99.99,267.709991,,2013-03-15 23:00:00,
2013-03-15 18:53:00,65.0,44.0,-100.00,SSW,207,8.0,-999.0,46,-99.99,,,-99.99,267.709991,,2013-03-15 23:53:00,
2013-03-15 19:00:00,60.0,48.0,-100.00,SSW,206,7.0,-999.0,63,-99.99,,,-99.99,73.239998,,2013-03-16 00:00:00,
2013-03-15 19:52:00,60.0,48.0,-100.00,SSW,206,7.0,-999.0,63,-99.99,,,-99.99,73.239998,,2013-03-16 00:52:00,
2013-03-15 20:00:00,58.0,48.0,-100.00,SSW,213,3.0,-999.0,71,-99.99,,,-99.99,0.570000,,2013-03-16 01:00:00,
2013-03-15 20:53:00,58.0,48.0,-100.00,SSW,213,3.0,-999.0,71,-99.99,,,-99.99,0.570000,,2013-03-16 01:53:00,
2013-03-15 21:00:00,58.0,47.0,-100.00,SSW,204,4.0,-999.0,66,-99.99,,,-99.99,0.000000,,2013-03-16 02:00:00,
2013-03-15 21:52:00,58.0,47.0,-100.00,SSW,204,4.0,-999.0,66,-99.99,,,-99.99,0.000000,,2013-03-16 02:52:00,
2013-03-15 22:00:00,59.0,49.0,-100.00,SSW,213,5.0,-999.0,69,-99.99,,,-99.99,0.000000,,2013-03-16 03:00:00,
2013-03-15 22:53:00,59.0,49.0,-100.00,SSW,213,5.0,-999.0,69,-99.99,,,-99.99,0.000000,,2013-03-16 03:53:00,
2013-03-15 23:00:00,59.0,50.0,-100.00,SSW,211,6.0,-999.0,72,-99.99,,,-99.99,0.000000,,2013-03-16 04:00:00,
2013-03-15 23:53:00,59.0,50.0,-100.00,SSW,211,6.0,-999.0,72,-99.99,,,-99.99,0.000000,,2013-03-16 04:53:00,